Ocean City, MD

9:44 AM EDT on August 16, 2017 (GMT -0400)
Ocean City Municipal

Weather History for KOXB - February, 2014

Change the Weather History Date:

Wednesday, February 26, 2014

  Actual Average (KSBY) Record (KSBY)
Temperature  
Mean Temperature 30 °F -  
Max Temperature 37 °F 46 °F 73 °F (1930)
Min Temperature 23 °F 30 °F 12 °F (1970)
Degree Days  
Heating Degree Days 35    
Moisture  
Dew Point 22 °F    
Average Humidity 71    
Maximum Humidity 92    
Minimum Humidity 49    
Precipitation  
Precipitation 0.00 in - - ()
Sea Level Pressure  
Sea Level Pressure 29.94 in    
Wind  
Wind Speed 4 mph (NNW)    
Max Wind Speed 13 mph    
Max Gust Speed 20 mph    
Visibility 7 miles    
Events Snow    
Averages and records for this station are not official NWS values.
T = Trace of Precipitation, MM = Missing Value Source: NWS Daily Summary

Daily Weather History Graph

Daily Weather History Graph

Search for Another Location

Airport or City:

Trip Planner

Search our weather history database for the weather conditions in past years. The results will help you decide how hot, cold, wet, or windy it might be!

Date:

Astronomy

Feb. 26, 2014 Rise Set
Actual Time 6:36 AM EST 5:50 PM EST
Civil Twilight 6:10 AM EST 6:17 PM EST
Nautical Twilight 5:39 AM EST 6:47 PM EST
Astronomical Twilight 5:08 AM EST 7:18 PM EST
Moon 4:19 AM EST (2/26) 3:04 PM EST (2/26)
Length of Visible Light 12h 07m
Length of Day
11h 13m
Waning Crescent, 10% of the Moon is Illuminated
Feb 26
Waning Crescent
Mar 1
New
Mar 8
First Quarter
Mar 16
Full
Mar 23
Last Quarter

Hourly Weather History & Observations

Time (EST) Temp. Windchill Dew Point Humidity Pressure Visibility Wind Dir Wind Speed Gust Speed Precip Events Conditions
12:53 AM 23.0 °F 18.4 °F 21.0 °F 92% 30.03 in 5.0 mi NW 3.5 mph - N/A   Clear
1:53 AM 23.0 °F - 19.9 °F 88% 30.03 in 4.0 mi Calm Calm - N/A   Scattered Clouds
2:53 AM 28.0 °F 24.2 °F 25.0 °F 88% 29.99 in 6.0 mi North 3.5 mph - N/A   Overcast
3:53 AM 28.0 °F - 24.1 °F 85% 29.96 in 6.0 mi Calm Calm - N/A   Overcast
4:53 AM 28.0 °F 24.2 °F 25.0 °F 88% 29.97 in 5.0 mi NNW 3.5 mph - N/A   Overcast
5:53 AM 28.9 °F 25.2 °F 25.0 °F 85% 29.96 in 5.0 mi North 3.5 mph - N/A   Overcast
6:53 AM 28.9 °F - 25.0 °F 85% 29.96 in 7.0 mi Calm Calm - N/A   Overcast
7:53 AM 30.0 °F 26.5 °F 23.0 °F 75% 29.97 in 10.0 mi NNW 3.5 mph - N/A   Overcast
8:53 AM 30.9 °F 27.5 °F 21.9 °F 69% 30.00 in 4.0 mi NNW 3.5 mph - 0.00 in Snow Light Snow
9:06 AM 30.0 °F 26.5 °F 23.0 °F 75% 30.00 in 2.0 mi NNW 3.5 mph - 0.00 in Snow Light Snow
9:20 AM 30.0 °F 25.2 °F 23.0 °F 75% 30.00 in 3.0 mi NNW 4.6 mph - 0.00 in Snow Light Snow
9:53 AM 30.9 °F 26.2 °F 25.0 °F 79% 30.01 in 3.0 mi North 4.6 mph - 0.00 in Snow Light Snow
10:00 AM 30.9 °F 26.2 °F 25.0 °F 79% 30.01 in 2.5 mi NNW 4.6 mph - 0.00 in Snow Light Snow
10:16 AM 30.9 °F 25.2 °F 25.0 °F 79% 30.00 in 1.8 mi North 5.8 mph - 0.00 in Snow Light Snow
10:39 AM 30.9 °F - 26.1 °F 82% 29.98 in 2.5 mi Calm Calm - 0.00 in Snow Light Snow
10:53 AM 30.9 °F - 26.1 °F 82% 29.98 in 3.0 mi Calm Calm - 0.00 in Snow Light Snow
11:07 AM 30.9 °F - 26.1 °F 82% 29.97 in 3.0 mi Calm Calm - 0.00 in Snow Light Snow
11:36 AM 32.0 °F 28.7 °F 27.0 °F 82% 29.95 in 10.0 mi Variable 3.5 mph - 0.00 in   Mostly Cloudy
11:53 AM 33.1 °F 30.0 °F 27.0 °F 78% 29.95 in 10.0 mi Variable 3.5 mph - 0.00 in   Mostly Cloudy
12:09 PM 33.1 °F 30.0 °F 26.1 °F 75% 29.94 in 10.0 mi Variable 3.5 mph - N/A   Scattered Clouds
12:43 PM 34.0 °F - 27.0 °F 75% 29.91 in 10.0 mi Calm Calm - N/A   Overcast
12:53 PM 34.0 °F - 26.1 °F 73% 29.91 in 10.0 mi Calm Calm - N/A   Overcast
1:31 PM 35.1 °F 27.4 °F 24.1 °F 64% 29.88 in 10.0 mi NW 10.4 mph 17.3 mph N/A   Overcast
1:53 PM 36.0 °F 27.5 °F 24.1 °F 62% 29.88 in 10.0 mi NW 12.7 mph - N/A   Overcast
2:01 PM 35.1 °F 27.4 °F 24.1 °F 64% 29.88 in 9.0 mi NW 10.4 mph 19.6 mph N/A   Overcast
2:12 PM 37.0 °F - 24.1 °F 59% 29.87 in 10.0 mi North - - N/A   Mostly Cloudy
2:53 PM 35.1 °F 27.4 °F 23.0 °F 61% 29.86 in 10.0 mi NNW 10.4 mph - N/A   Overcast
3:20 PM 35.1 °F 26.4 °F 23.0 °F 61% 29.86 in 10.0 mi North 12.7 mph 18.4 mph N/A   Overcast
3:33 PM 34.0 °F 26.6 °F 25.0 °F 70% 29.87 in 7.0 mi NNW 9.2 mph 19.6 mph 0.00 in Snow Light Snow
3:53 PM 34.0 °F 25.5 °F 25.0 °F 70% 29.86 in 10.0 mi North 11.5 mph - 0.00 in   Mostly Cloudy
4:53 PM 35.1 °F 26.9 °F 19.0 °F 52% 29.86 in 10.0 mi NNW 11.5 mph 18.4 mph N/A   Mostly Cloudy
5:53 PM 30.9 °F 25.2 °F 18.0 °F 59% 29.86 in 10.0 mi North 5.8 mph - N/A   Clear
6:53 PM 28.0 °F 20.8 °F 15.1 °F 58% 29.87 in 10.0 mi NNW 6.9 mph - N/A   Clear
7:53 PM 28.9 °F 21.9 °F 12.0 °F 49% 29.88 in 10.0 mi North 6.9 mph - N/A   Clear
8:53 PM 28.0 °F 20.8 °F 10.9 °F 49% 29.91 in 10.0 mi North 6.9 mph - N/A   Clear
9:53 PM 27.0 °F 18.7 °F 10.9 °F 51% 29.91 in 10.0 mi North 8.1 mph - N/A   Clear
10:53 PM 27.0 °F 20.5 °F 10.9 °F 51% 29.90 in 10.0 mi NE 5.8 mph - N/A   Clear
11:53 PM 26.1 °F 20.5 °F 10.0 °F 51% 29.90 in 10.0 mi NNE 4.6 mph - N/A   Clear